[[{"header":{"parameterUnit":"m.s-1","parameterCategory":1,"la1":30.2991,"la2":30.254,"lo1":-89.0895,"lo2":-89.0444,"dy":0.0017,"dx":0.0017,"nx":28,"ny":28,"refTime":"2025-04-25T03:00:00:Z","depth":0,"parameterNumber":2,"parameterNumberName":"U-component_of_WINDS"},"data":[0,0,0,0,0,0,0,0,0,0,0,0,0,0,0,0,0,0,0,0,0,0,0,0,0,0,0,0,0,0,0,0,0,0,0,0,0,0,0,0,0,0,0,0,0,0,0,0,0,0,0,0,0,0,0,0,0,0,-2.1024,-2.1023,0,-2.0966,-2.0965,-2.0964,-2.0902,-2.0901,-2.09,-2.0899,-2.0835,-2.0834,-2.0834,0,0,0,0,0,0,0,0,0,0,0,0,0,-2.1078,-2.1077,-2.1024,-2.1023,-2.1023,-2.0966,-2.0965,-2.0964,-2.0902,-2.0901,-2.09,-2.0899,-2.0836,-2.0834,-2.0833,0,0,0,0,0,0,0,0,0,0,0,0,0,-2.1041,-2.1077,-2.1024,-2.0985,-2.0981,-2.0966,-2.0965,-2.0964,-2.0902,-2.0901,-2.09,-2.0898,-2.0836,-2.0835,-2.0833,-2.0851,0,0,-2.0829,-2.0829,0,0,0,0,0,0,0,0,-2.1043,-2.1039,-2.0991,-2.0987,-2.0983,-2.094,-2.096,-2.0926,-2.0903,-2.0932,-2.0899,-2.0898,-2.0871,-2.0867,-2.0858,-2.0848,-2.0845,-2.0829,-2.0828,-2.0828,-2.0827,0,0,0,0,0,0,0,-2.1045,-2.1041,-2.1001,-2.0991,-2.0986,-2.0969,-2.0962,-2.0954,-2.0909,-2.0929,-2.0925,-2.0919,-2.0868,-2.086,-2.0856,-2.0844,-2.0829,-2.0828,-2.0827,-2.0827,-2.0846,-2.0847,0,0,0,0,0,0,-2.1054,-2.1043,-2.1003,-2.0999,-2.101,-2.0969,-2.0961,-2.0955,-2.0909,-2.0901,-2.092,-2.0916,-2.0863,-2.0858,-2.0854,-2.0871,-2.0828,-2.0826,-2.0826,-2.0845,-2.0846,-2.0848,0,0,0,0,0,0,-2.1056,-2.1051,-2.1005,-2.102,-2.1013,-2.097,-2.0963,-2.0954,-2.0946,-2.0902,-2.0894,-2.092,-2.0861,-2.0856,-2.0853,-2.0868,-2.0826,-2.0825,-2.0843,-2.0845,-2.0847,-2.0907,0,0,0,0,0,0,-2.1058,-2.1052,-2.1059,-2.1021,-2.1012,-2.1006,-2.0964,-2.0954,-2.0944,-2.0939,-2.09,-2.0892,-2.086,-2.0855,-2.0851,-2.0866,-2.0824,-2.0841,-2.0844,-2.0846,-2.0904,-2.0911,-2.0918,0,0,0,0,0,-2.106,-2.1078,-2.106,-2.1056,-2.102,-2.1007,-2.1002,-2.0966,-2.0946,-2.0952,-2.0924,-2.0893,-2.0868,-2.0855,-2.085,-2.0865,-2.084,-2.0843,-2.0846,-2.0901,-2.091,-2.0917,0,0,0,0,0,0,-2.1118,-2.1072,-2.1052,-2.1058,-2.1037,-2.0997,-2.1003,-2.0977,-2.096,-2.0955,-2.091,-2.0902,-2.0904,-2.0884,-2.0871,-2.088,-2.0849,-2.0852,-2.0893,-2.0901,-2.0908,-2.0912,-2.0822,0,0,0,0,0,-2.1132,-2.1126,-2.1086,-2.1095,-2.1086,-2.1047,-2.1039,-2.1014,-2.099,-2.098,-2.0952,-2.0928,-2.0915,-2.0907,-2.0892,-2.0901,-2.0891,-2.0909,-2.0916,-2.0921,-2.0923,-2.0926,-2.0933,-2.0857,-2.0857,-2.0857,0,0,-2.116,-2.1134,-2.1133,-2.1106,-2.1087,-2.1081,-2.1039,-2.1035,-2.1029,-2.0979,-2.0974,-2.0953,-2.0924,-2.0927,-2.0927,-2.091,-2.0943,-2.0925,-2.093,-2.0929,-2.093,-2.0937,-2.0944,-2.0859,-2.0859,-2.0859,0,0,-2.1207,-2.1188,-2.1193,-2.1175,-2.1148,-2.1122,-2.1123,-2.1087,-2.1071,-2.1067,-2.1029,-2.1021,-2.0999,-2.098,-2.0967,-2.1009,-2.098,-2.1006,-2.1041,-2.1044,-2.105,-2.1055,-2.107,-2.1075,-2.1008,-2.1008,-2.1008,0,-2.1245,-2.1236,-2.1199,-2.1197,-2.1186,-2.1142,-2.1147,-2.1131,-2.1099,-2.1092,-2.1075,-2.1047,-2.1024,-2.1022,-2.1032,-2.1024,-2.1023,-2.1009,-2.1053,-2.1057,-2.1062,-2.1074,-2.108,-2.1011,-2.1011,-2.1011,-2.101,0,-2.1283,-2.1277,-2.1285,-2.1257,-2.1247,-2.1249,-2.1211,-2.1206,-2.1181,-2.1157,-2.1152,-2.1124,-2.1103,-2.1101,-2.1076,-2.1095,-2.1086,-2.1061,-2.103,-2.1073,-2.1084,-2.1089,-2.1016,-2.1015,-2.1014,-2.1013,0,0,-2.1364,-2.1318,-2.1321,-2.1308,-2.1274,-2.1268,-2.1268,-2.1249,-2.1244,-2.1224,-2.1221,-2.1205,-2.1182,-2.1168,-2.1141,-2.1144,-2.1178,-2.1119,-2.1117,-2.113,-2.1197,-2.1215,-2.1221,-2.1159,-2.116,-2.1161,-2.1199,0,-2.1406,-2.1403,-2.137,-2.1376,-2.137,-2.1329,-2.1328,-2.1307,-2.1284,-2.1275,-2.1249,-2.1238,-2.1209,-2.12,-2.1202,-2.1174,-2.1191,-2.1171,-2.1155,-2.1155,-2.1163,-2.1227,-2.1246,-2.1283,-2.1203,-2.1204,-2.1204,0,-2.1453,-2.1437,-2.1443,-2.141,-2.1406,-2.1406,-2.1386,-2.1378,-2.1353,-2.1336,-2.1321,-2.1291,-2.1287,-2.1259,-2.1252,-2.1239,-2.123,-2.1216,-2.1216,-2.1213,-2.1182,-2.1224,-2.1294,-2.1299,-2.1211,-2.1211,-2.121,0,-2.1511,-2.1491,-2.1492,-2.1482,-2.1444,-2.1445,-2.1428,-2.1402,-2.1393,-2.1375,-2.1368,-2.135,-2.134,-2.1326,-2.1291,-2.1274,-2.1288,-2.1256,-2.1272,-2.1273,-2.1276,-2.1276,-2.1345,-2.1273,-2.1273,-2.1273,-2.1273,0,-2.156,-2.1565,-2.1518,-2.1518,-2.1522,-2.1485,-2.149,-2.1469,-2.1447,-2.1441,-2.1404,-2.14,-2.1356,-2.1346,-2.1319,-2.1317,-2.1312,-2.1298,-2.129,-2.13,-2.1302,-2.1293,-2.129,-2.1274,-2.1274,-2.1273,-2.1273,0,-2.1625,-2.1594,-2.1592,-2.1556,-2.1547,-2.1552,-2.1521,-2.1519,-2.1495,-2.1489,-2.1485,-2.1447,-2.1434,-2.1398,-2.1376,-2.1357,-2.1362,-2.1349,-2.1371,-2.1366,-2.1384,-2.1383,-2.1449,-2.1455,-2.138,-2.1381,-2.1382,0,-2.1657,-2.1661,-2.1626,-2.162,-2.1606,-2.1598,-2.1589,-2.1552,-2.1544,-2.1516,-2.1517,-2.1502,-2.1487,-2.1468,-2.1437,-2.1419,-2.1405,-2.1429,-2.1401,-2.1412,-2.1404,-2.1404,-2.1404,-2.1435,-2.1436,-2.1437,-2.1437,0,-2.1719,-2.1703,-2.1692,-2.1676,-2.1667,-2.1652,-2.1634,-2.1632,-2.1591,-2.1583,-2.157,-2.1559,-2.1536,-2.1521,-2.1499,-2.148,-2.1451,-2.1447,-2.1449,-2.1459,-2.1471,-2.1464,-2.1387,-2.1445,-2.1444,-2.1443,-2.1443,-2.1443,-2.1768,-2.1769,-2.1745,-2.1733,-2.1717,-2.1702,-2.1699,-2.1675,-2.1664,-2.1644,-2.1623,-2.1612,-2.1586,-2.1554,-2.1538,-2.1528,-2.1513,-2.1517,-2.1517,-2.1519,-2.1523,-2.1474,-2.1524,-2.1523,-2.1523,-2.1523,-2.1523,0,-2.1827,-2.1809,-2.18,-2.1778,-2.1769,-2.1745,-2.1724,-2.1718,-2.171,-2.1689,-2.1676,-2.1661,-2.1646,-2.1614,-2.1596,-2.1594,-2.1581,-2.1591,-2.159,-2.1586,-2.1538,-2.1537,-2.1602,-2.1602,-2.1602,-2.1602,-2.1602,-2.1602,-2.1856,-2.1856,-2.1838,-2.183,-2.1812,-2.1802,-2.1793,-2.1778,-2.1762,-2.1747,-2.1735,-2.1715,-2.169,-2.167,-2.1655,-2.1646,-2.164,-2.1654,-2.1641,-2.1597,-2.1589,-2.1582,-2.1581,-2.1654,-2.1654,-2.1689,-2.169,-2.169]},{"header":{"parameterUnit":"m.s-1","parameterCategory":1,"la1":30.2991,"la2":30.254,"lo1":-89.0895,"lo2":-89.0444,"dy":0.0017,"dx":0.0017,"nx":28,"ny":28,"refTime":"2025-04-25T03:00:00:Z","depth":0,"parameterNumber":3,"parameterNumberName":"V-component_of_WINDS"},"data":[0,0,0,0,0,0,0,0,0,0,0,0,0,0,0,0,0,0,0,0,0,0,0,0,0,0,0,0,0,0,0,0,0,0,0,0,0,0,0,0,0,0,0,0,0,0,0,0,0,0,0,0,0,0,0,0,0,0,2.1926,2.1926,0,2.1924,2.1924,2.1924,2.1917,2.1917,2.1917,2.1917,2.1914,2.1914,2.1914,0,0,0,0,0,0,0,0,0,0,0,0,0,2.1924,2.1924,2.1926,2.1926,2.1926,2.1924,2.1924,2.1924,2.1917,2.1917,2.1917,2.1917,2.1914,2.1914,2.1914,0,0,0,0,0,0,0,0,0,0,0,0,0,2.1924,2.1924,2.1926,2.1922,2.1922,2.1924,2.1924,2.1924,2.1917,2.1917,2.1917,2.1916,2.1914,2.1914,2.1914,2.192,0,0,2.1915,2.1915,0,0,0,0,0,0,0,0,2.1924,2.1924,2.1923,2.1923,2.1922,2.192,2.1922,2.1922,2.1917,2.1919,2.1917,2.1916,2.1917,2.1916,2.1916,2.1919,2.1919,2.1915,2.1915,2.1915,2.1915,0,0,0,0,0,0,0,2.1924,2.1924,2.1925,2.1923,2.1923,2.1921,2.1921,2.1922,2.1919,2.1919,2.1918,2.1918,2.1916,2.1916,2.1916,2.1919,2.1915,2.1915,2.1915,2.1915,2.1926,2.1926,0,0,0,0,0,0,2.1925,2.1924,2.1925,2.1925,2.1923,2.1921,2.1921,2.1921,2.1919,2.1918,2.1918,2.1918,2.1916,2.1916,2.1916,2.1922,2.1915,2.1915,2.1915,2.1926,2.1926,2.1926,0,0,0,0,0,0,2.1925,2.1925,2.1925,2.1924,2.1924,2.1921,2.1922,2.1921,2.1921,2.1919,2.1918,2.1919,2.1916,2.1916,2.1919,2.1922,2.1915,2.1915,2.1926,2.1926,2.1926,2.1934,0,0,0,0,0,0,2.1925,2.1925,2.1927,2.1925,2.1924,2.1928,2.1922,2.1921,2.1922,2.1921,2.1919,2.1919,2.1916,2.1919,2.1919,2.1922,2.1915,2.1925,2.1926,2.1926,2.1933,2.1934,2.1935,0,0,0,0,0,2.1925,2.1929,2.1927,2.1927,2.1927,2.1928,2.1928,2.1925,2.1922,2.1924,2.1922,2.1919,2.1921,2.1919,2.1919,2.1922,2.1925,2.1926,2.1926,2.1933,2.1934,2.1935,0,0,0,0,0,0,2.1932,2.1929,2.1926,2.193,2.1929,2.1927,2.1929,2.1926,2.1927,2.1926,2.1922,2.1922,2.1925,2.1924,2.1921,2.1927,2.1923,2.1923,2.1928,2.1929,2.193,2.193,2.1915,0,0,0,0,0,2.1934,2.1935,2.1932,2.1936,2.1936,2.1933,2.1933,2.1931,2.193,2.1929,2.1928,2.1927,2.1928,2.1928,2.1929,2.1933,2.1932,2.1935,2.1936,2.1937,2.1938,2.194,2.1941,2.1928,2.1928,2.1928,0,0,2.1938,2.1937,2.1938,2.1937,2.1937,2.1938,2.1932,2.1934,2.1935,2.193,2.1932,2.1931,2.193,2.1933,2.1935,2.1932,2.1941,2.1938,2.1938,2.1939,2.1941,2.1942,2.1943,2.1928,2.1928,2.1928,0,0,2.1947,2.1946,2.1949,2.1948,2.1947,2.1944,2.1945,2.1943,2.1942,2.1944,2.194,2.1941,2.1942,2.1942,2.1941,2.1949,2.1946,2.195,2.1955,2.1957,2.1958,2.1959,2.1962,2.1963,2.195,2.195,2.195,0,2.1953,2.1955,2.1951,2.1953,2.1953,2.1947,2.1951,2.195,2.1949,2.1949,2.1946,2.1948,2.1946,2.195,2.1952,2.1952,2.1952,2.195,2.1959,2.1959,2.196,2.1963,2.1964,2.1951,2.1951,2.1951,2.195,0,2.1962,2.1963,2.1966,2.1965,2.1965,2.1967,2.1964,2.1964,2.1962,2.196,2.1962,2.196,2.196,2.1961,2.1958,2.1964,2.1963,2.1959,2.1955,2.1962,2.1965,2.1966,2.1951,2.1951,2.1951,2.1951,0,0,2.1976,2.1972,2.1973,2.1973,2.1971,2.1972,2.1974,2.1974,2.1974,2.1973,2.1975,2.1976,2.1973,2.1973,2.197,2.1972,2.1979,2.1968,2.1968,2.1971,2.1985,2.1987,2.1989,2.1976,2.1976,2.1977,2.1985,0,2.1984,2.1988,2.1984,2.1988,2.199,2.1984,2.1986,2.1985,2.1983,2.1984,2.1982,2.1982,2.1978,2.1978,2.198,2.1977,2.1981,2.1977,2.1978,2.1978,2.1979,2.199,2.1993,2.2001,2.1986,2.1986,2.1986,0,2.1995,2.1994,2.1999,2.1996,2.1997,2.1999,2.1998,2.1999,2.1997,2.1996,2.1995,2.1992,2.1993,2.1989,2.1991,2.1988,2.1988,2.1987,2.1987,2.1988,2.1983,2.1991,2.2003,2.2005,2.1988,2.1987,2.1987,0,2.2005,2.2006,2.2008,2.2008,2.2005,2.2006,2.2005,2.2003,2.2003,2.2003,2.2003,2.2003,2.2003,2.2002,2.1999,2.1996,2.2002,2.1997,2.2001,2.2001,2.2003,2.2003,2.2016,2.2002,2.2002,2.2002,2.2002,0,2.2015,2.2018,2.2013,2.2015,2.2018,2.2013,2.2017,2.2015,2.2013,2.2014,2.201,2.2011,2.2006,2.2007,2.2004,2.2006,2.2006,2.2005,2.2004,2.2006,2.2006,2.2006,2.2006,2.2002,2.2002,2.2002,2.2002,0,2.2028,2.2024,2.2027,2.2024,2.2023,2.2025,2.2022,2.2024,2.2021,2.2023,2.2023,2.2019,2.202,2.2016,2.2016,2.2014,2.2018,2.2016,2.2018,2.2018,2.2022,2.2022,2.2036,2.2038,2.2023,2.2023,2.2023,0,2.2035,2.2037,2.2034,2.2035,2.2034,2.2034,2.2034,2.203,2.203,2.2028,2.203,2.203,2.203,2.2031,2.2028,2.2028,2.2026,2.2031,2.2026,2.2027,2.2027,2.2027,2.2027,2.2032,2.2032,2.2032,2.2033,0,2.2048,2.2046,2.2047,2.2046,2.2046,2.2046,2.2045,2.2045,2.204,2.2041,2.2041,2.2041,2.2041,2.2041,2.204,2.2038,2.2035,2.2034,2.2035,2.2037,2.2038,2.2038,2.2022,2.2034,2.2034,2.2034,2.2034,2.2034,2.2059,2.206,2.2058,2.2059,2.2057,2.2057,2.2058,2.2055,2.2055,2.2055,2.2052,2.2053,2.2051,2.2049,2.2048,2.2049,2.2046,2.2048,2.2048,2.2049,2.205,2.2038,2.2048,2.2048,2.2048,2.2048,2.2048,0,2.2072,2.207,2.2071,2.207,2.207,2.2066,2.2064,2.2065,2.2066,2.2064,2.2064,2.2064,2.2064,2.2061,2.2061,2.2062,2.206,2.2062,2.2062,2.2062,2.2052,2.2051,2.2063,2.2063,2.2063,2.2063,2.2063,2.2063,2.2079,2.2082,2.208,2.2082,2.208,2.2081,2.208,2.2079,2.2078,2.2079,2.2079,2.2076,2.2074,2.2073,2.2073,2.2072,2.2072,2.2075,2.2073,2.2064,2.2063,2.2061,2.2061,2.2075,2.2075,2.2084,2.2084,2.2084]}]]